Location: *
(52.2090°N, 4.1550°W)
Time: 21:24:45
(UTC+00:00)

SL-4 R/B - Pass Details

Date: 19 July 2019
Orbit: 428 x 667 km, 51.6° (Epoch: 23 August)

Event Time Altitude Azimuth Distance (km) Brightness Sun altitude
Rises 22:13:25 0° 227° (SW) 2,996 5.6 -11.8°
Reaches altitude 10° 22:15:52 10° 220° (SW) 2,088 4.8 -11.9°
Maximum altitude 22:20:24 41° 151° (SSE) 957 2.7 -12.3°
Drops below altitude 10° 22:24:51 10° 82° (E) 2,048 4.7 -12.6°
Sets 22:27:14 0° 75° (ENE) 2,933 5.6 -12.8°
